GFSSE_250_spd_336.txt.gz
Wind_Speed
20 28 26 26 18 14 12 13 10 11 10 17 20 23 21 24 31 20 23 17 17 13 15 15 17 18 18 17 23 27 37 41 46 44 42 39 32 25 21 19 16 14 11
26 31 27 26 22 11 10 6 10 7 8 14 19 21 22 22 35 26 23 17 16 12 15 16 17 18 18 17 21 25 32 37 42 37 42 43 31 30 29 24 21 16 15
30 30 28 29 16 20 18 7 10 3 9 14 19 20 20 22 31 27 22 16 14 12 12 14 15 17 15 16 20 20 23 32 35 36 37 39 42 37 32 33 25 24 21
31 32 31 27 20 14 8 11 8 4 12 15 18 18 23 24 28 22 18 14 13 14 17 18 14 14 13 10 14 22 22 24 28 33 39 37 37 37 39 31 33 29 29
21 27 27 25 18 14 14 11 3 4 11 15 13 16 21 28 25 20 13 13 13 15 14 14 13 14 18 11 8 21 21 25 28 31 32 37 38 39 36 34 33 31 31
28 16 17 24 17 13 8 3 6 2 15 12 11 20 20 25 22 18 12 13 13 14 14 14 14 11 17 16 10 16 18 22 23 26 28 29 36 39 37 35 36 32 34
30 33 26 21 16 16 10 9 7 2 4 15 20 21 23 25 24 14 14 14 13 13 13 14 14 14 12 17 17 14 19 19 22 23 24 28 30 35 37 32 32 35 32
46 37 33 22 18 19 9 9 2 4 3 7 18 24 24 23 26 19 11 15 14 15 14 10 13 14 15 18 17 16 12 16 19 18 21 23 27 27 32 29 29 31 35
48 45 36 28 25 25 12 6 7 7 10 10 13 18 18 21 23 24 7 10 13 12 14 11 23 25 21 26 20 15 12 17 14 17 15 20 22 24 28 31 26 26 29
47 48 42 33 30 23 15 13 17 16 15 17 18 16 12 16 21 20 6 7 8 11 11 17 18 13 12 18 20 14 16 22 16 13 13 13 16 18 22 27 22 24 25
40 48 42 35 32 22 21 17 21 17 18 15 13 10 12 11 15 18 6 10 10 8 10 15 17 14 12 17 15 12 18 19 12 13 13 11 10 14 17 21 18 19 20
40 42 44 40 37 24 21 16 18 17 18 12 10 9 8 10 13 10 5 6 10 14 12 7 12 16 10 14 12 14 20 22 19 14 19 10 5 11 11 17 18 17 18
31 34 37 36 29 19 22 25 24 20 11 6 5 7 5 9 10 4 5 2 4 9 9 6 9 12 13 12 15 18 20 22 22 17 20 17 9 4 6 10 14 17 15
26 26 25 28 25 24 22 32 27 10 10 10 8 6 9 14 13 6 8 4 3 4 10 4 4 9 10 15 20 15 19 19 20 21 22 19 11 1 6 9 9 12 16
34 29 28 27 28 22 31 18 18 14 12 11 12 13 13 14 2 9 8 1 4 4 8 6 5 6 8 18 18 15 16 17 22 23 17 15 15 8 7 7 4 8 13
33 37 30 28 29 21 18 19 22 22 20 18 14 15 12 13 6 4 4 4 6 7 4 2 7 8 10 16 14 19 16 16 16 20 17 13 14 12 7 3 2 6 10
24 26 31 32 23 23 18 21 22 23 18 13 15 19 20 8 9 10 10 13 3 6 7 5 8 11 14 10 20 20 15 10 12 16 10 13 10 14 14 4 2 7 7
25 26 30 27 26 22 22 22 20 17 12 14 14 22 15 10 13 21 9 7 7 5 7 4 9 14 14 16 20 22 11 5 6 9 8 14 15 15 14 9 6 5 5
23 24 25 24 27 22 22 17 19 15 13 16 17 11 11 14 16 16 16 15 10 6 6 6 11 13 15 19 22 21 9 6 4 4 6 15 17 13 11 9 10 6 4
24 27 25 26 25 25 23 21 20 17 15 19 10 10 10 16 18 16 16 15 14 12 8 8 9 13 16 21 26 21 14 10 8 8 9 12 16 11 5 5 5 5 2
17 27 28 29 28 28 29 29 29 25 22 23 14 16 17 17 20 18 15 14 13 13 10 12 15 18 21 21 29 21 11 12 10 10 11 7 7 8 7 7 4 7 5
9 16 23 34 33 34 31 30 26 21 16 16 18 16 19 19 20 15 16 14 15 15 16 14 16 18 27 27 29 20 11 14 11 7 8 6 6 5 4 5 6 6 8
5 8 12 14 21 30 27 20 16 17 15 16 17 16 20 19 17 13 14 17 19 17 17 17 19 21 28 30 27 21 13 15 14 12 9 5 6 6 7 7 5 3 5
4 4 6 8 13 16 16 15 13 15 15 16 14 16 19 22 23 19 19 19 19 19 20 22 23 25 26 28 28 21 13 11 13 12 9 8 9 10 14 7 3 5 2
11 6 3 3 5 10 14 15 18 17 16 18 16 14 18 19 22 22 20 21 22 21 22 23 24 25 25 27 28 20 13 9 14 11 13 12 11 13 16 16 8 11 8
8 8 9 6 8 12 14 17 17 16 17 16 14 13 16 18 21 22 23 23 23 24 23 22 21 24 26 26 22 15 11 7 10 11 12 12 12 14 16 15 14 16 15

GFSSE_250_spd_339.txt.gz
Wind_Speed
20 20 18 23 18 11 14 10 12 10 11 16 22 25 28 29 30 26 19 16 12 13 14 18 18 17 17 23 25 31 35 36 41 43 40 37 34 30 24 22 20 18 16
22 28 27 23 27 12 5 8 11 8 11 17 20 23 29 31 30 26 18 16 13 13 16 17 18 15 17 22 26 25 31 37 41 41 41 38 33 33 29 28 23 19 22
24 25 25 29 28 23 12 11 8 9 13 21 19 24 26 33 32 25 16 17 14 14 16 15 17 19 16 19 22 26 27 31 37 38 41 39 35 32 32 30 29 25 23
29 30 34 27 29 21 17 7 8 6 13 17 18 25 25 32 31 21 15 15 13 13 15 14 21 21 20 17 22 26 26 31 31 31 37 40 36 36 34 33 31 28 27
30 31 34 29 24 19 13 14 10 5 13 18 18 23 27 34 32 20 14 14 13 13 14 13 13 19 19 18 17 21 21 28 29 32 33 35 37 35 36 33 31 29 31
28 28 31 32 27 17 10 9 6 3 9 18 22 22 32 34 28 19 14 14 9 12 13 15 15 16 18 17 14 19 23 22 25 25 30 31 35 33 34 34 37 33 29
38 29 15 20 22 17 10 7 8 7 6 9 15 23 30 29 25 17 13 13 11 9 10 11 11 12 21 20 13 17 20 18 18 21 25 26 32 33 30 30 31 36 33
32 27 26 24 17 18 13 11 8 7 7 9 13 19 24 22 23 16 9 14 12 11 12 21 19 25 19 21 16 21 24 23 16 19 19 20 26 28 26 29 31 31 35
38 33 31 28 24 18 12 10 6 5 7 7 12 15 22 18 21 18 3 9 9 13 18 17 19 12 21 24 21 20 20 18 15 16 19 16 21 24 24 25 26 25 26
43 40 36 28 20 21 11 9 7 10 9 7 10 12 14 12 16 16 2 3 8 12 15 19 16 15 18 15 10 14 22 19 16 18 20 13 15 20 23 21 22 24 24
44 46 39 34 25 18 17 11 14 17 9 9 8 11 17 10 13 13 2 4 9 14 19 16 17 14 14 18 17 21 24 24 17 19 17 10 11 14 18 21 18 21 19
38 45 45 35 28 20 16 13 12 9 10 13 8 12 8 9 11 9 2 3 12 16 14 14 12 12 13 17 21 18 21 24 25 20 20 9 5 9 11 16 19 19 18
31 39 43 40 32 23 17 16 12 9 6 5 2 5 6 9 14 6 1 7 5 6 12 10 8 12 13 16 23 20 21 24 29 21 20 10 8 5 9 13 16 18 16
26 32 38 40 33 23 24 16 21 11 11 4 8 5 10 12 15 2 4 1 3 8 13 7 9 12 12 19 19 23 21 23 20 19 17 18 13 11 9 8 13 17 17
26 37 33 38 32 23 21 20 20 17 15 7 11 10 10 11 13 4 5 3 1 7 3 8 9 13 16 17 22 26 19 13 14 14 14 16 18 11 7 7 9 11 15
18 25 32 29 27 23 21 17 15 14 13 12 15 13 13 11 3 3 5 4 3 6 5 7 11 16 16 12 21 23 19 12 14 15 14 17 21 19 9 8 8 9 7
28 27 25 24 22 18 18 20 18 16 20 19 16 12 13 12 7 7 4 4 8 7 9 10 10 12 15 15 23 26 19 13 12 13 17 19 18 19 13 10 8 7 8
30 24 23 22 25 22 19 15 15 15 16 14 11 15 16 7 13 13 7 4 4 8 9 5 9 11 15 16 21 25 24 13 14 14 10 11 18 18 10 5 6 4 8
31 26 25 25 24 22 21 20 17 17 12 14 11 16 7 4 11 18 13 8 7 13 8 9 11 12 14 19 23 25 23 16 13 12 14 16 17 12 9 9 9 6 3
22 29 28 28 26 28 25 21 17 15 14 10 14 15 4 5 13 14 15 15 17 19 16 11 12 14 19 23 27 29 22 15 15 10 9 10 10 9 8 9 6 4 2
18 24 25 27 28 28 27 24 18 19 13 17 15 12 10 6 12 14 16 17 17 19 18 14 16 18 20 25 27 30 25 14 14 10 7 6 6 7 4 3 6 6 3
14 19 25 27 27 25 24 23 21 20 24 21 16 11 12 14 11 16 18 20 19 16 17 18 19 19 22 26 26 25 25 10 12 11 5 6 7 3 2 5 5 8 7
8 12 16 21 26 24 26 27 25 22 24 19 14 12 14 13 15 16 18 20 19 16 18 20 20 22 26 24 25 26 25 12 11 10 7 8 5 5 5 6 4 3 3
5 6 8 12 16 23 24 26 27 22 19 20 14 15 14 14 17 18 19 18 18 19 20 22 24 26 27 24 27 30 24 11 9 17 13 9 3 6 9 9 7 6 3
10 8 7 8 12 16 15 14 17 18 17 13 13 11 13 14 19 20 24 24 23 22 21 24 24 26 24 24 26 29 23 16 5 9 6 7 6 8 10 13 8 5 9
7 10 6 5 9 11 15 14 14 14 13 13 15 15 15 15 16 17 19 23 25 24 24 24 23 22 22 26 26 24 18 15 7 7 8 6 5 7 11 14 17 16 16

GFSSE_250_spd_342.txt.gz
Wind_Speed
20 22 20 15 16 14 13 14 15 20 20 24 22 27 32 27 24 19 16 18 18 17 19 20 20 21 26 26 24 32 37 44 39 34 35 33 30 29 24 21 25 25 21
19 24 23 23 19 16 13 11 12 15 16 21 20 30 34 29 23 18 19 20 18 16 17 21 21 21 20 25 25 32 36 38 41 39 39 36 33 31 31 29 30 30 28
24 29 22 21 20 15 24 15 13 15 17 15 23 29 31 28 19 18 17 18 18 16 17 23 25 22 20 21 23 26 33 36 38 41 39 38 34 33 32 32 30 33 34
27 31 28 28 21 28 23 15 17 12 11 15 25 30 29 30 16 15 15 16 15 16 12 15 21 20 16 22 22 24 29 32 36 36 38 37 36 35 30 32 30 33 34
27 28 29 32 30 16 22 12 9 8 8 11 22 29 29 31 21 16 14 14 15 17 15 17 19 19 15 20 24 22 24 27 30 32 36 35 35 34 35 30 32 33 32
23 26 23 31 30 23 9 5 6 4 4 5 12 16 26 28 24 15 17 15 13 14 15 17 19 23 23 17 26 26 24 22 22 28 30 33 31 33 30 31 29 30 31
26 25 30 28 25 21 13 8 9 8 3 5 11 15 19 23 18 13 16 14 13 15 19 21 21 24 22 22 21 25 21 21 20 21 23 28 29 30 32 32 35 35 34
34 38 27 17 17 21 15 10 11 10 6 5 11 15 16 20 20 9 11 14 14 20 22 21 16 21 18 19 18 23 21 20 18 20 19 22 25 25 25 25 28 31 35
38 35 33 25 17 22 21 16 14 12 6 3 9 16 16 16 17 10 7 10 15 17 20 17 17 17 14 18 24 20 26 23 15 15 14 17 22 22 22 24 25 28 27
40 30 28 27 22 20 17 16 13 10 6 6 9 10 12 10 12 11 6 8 19 21 24 16 18 15 16 21 21 21 26 24 22 17 8 11 18 20 20 22 22 21 23
37 37 34 33 23 20 17 14 13 10 8 5 9 9 9 10 13 9 3 7 14 16 12 12 12 17 16 21 24 21 23 28 19 17 6 12 12 15 18 18 19 18 17
42 38 34 38 30 19 20 12 14 13 5 4 6 8 5 9 14 7 6 10 7 9 15 14 13 15 16 22 25 21 21 20 24 16 9 7 10 11 16 20 17 17 14
44 42 37 33 30 21 18 16 10 6 3 5 6 8 8 9 10 4 7 5 3 10 10 11 11 18 19 18 21 24 15 22 24 16 13 9 11 11 12 17 19 17 17
47 43 40 38 25 23 18 15 11 4 3 6 4 4 9 11 10 2 3 2 5 7 11 10 11 17 18 16 22 27 18 20 23 13 25 13 11 9 11 13 15 18 19
40 48 42 40 37 25 21 16 17 12 8 6 1 6 7 10 7 1 3 1 1 7 9 8 11 15 15 16 22 27 25 17 17 19 21 24 17 15 10 14 13 12 14
32 31 29 36 34 33 24 16 17 17 12 13 8 11 7 7 4 3 4 3 4 7 8 7 9 11 15 17 22 25 28 18 12 15 20 21 19 16 12 9 7 7 8
25 36 31 29 31 28 24 23 16 14 11 10 12 11 7 9 2 4 3 1 8 6 8 8 7 11 14 19 23 24 27 19 11 9 16 18 17 14 8 5 5 3 5
22 32 33 26 29 27 25 18 18 18 12 10 9 6 11 7 7 11 5 3 6 6 10 7 11 14 15 19 22 23 24 18 14 12 9 12 13 12 7 5 5 6 3
23 24 26 28 26 27 23 24 16 15 7 8 5 5 12 5 10 17 13 11 4 7 11 14 13 15 17 19 23 23 23 19 13 10 7 9 10 10 9 4 3 3 5
25 25 23 22 22 22 23 23 18 14 16 8 5 8 11 7 14 20 15 11 12 13 16 17 18 17 21 22 26 25 25 17 10 5 4 6 9 9 8 7 4 3 10
24 25 24 24 22 27 26 24 20 18 13 10 9 10 10 5 12 17 15 15 13 14 16 18 19 20 23 24 28 26 23 15 6 3 2 2 3 6 6 6 9 8 9
22 22 22 23 25 26 26 24 23 17 15 13 15 14 9 8 8 10 12 13 14 17 20 19 18 21 24 28 27 25 21 18 7 3 4 2 3 5 1 6 8 11 8
14 22 27 27 28 27 26 27 25 19 16 15 16 17 10 8 9 7 9 10 13 16 18 19 20 21 23 26 25 26 24 20 5 5 6 2 4 6 4 5 4 5 5
8 14 20 27 29 29 25 24 24 22 17 16 16 14 7 8 7 8 10 13 17 19 20 22 24 24 22 23 23 25 21 17 6 8 9 7 5 3 5 6 6 4 2
2 7 11 17 21 25 29 28 23 22 21 18 17 11 7 8 8 12 14 15 19 20 21 22 21 20 19 19 22 25 17 13 9 5 10 9 7 8 5 8 11 7 7
8 3 5 8 12 17 17 16 17 18 16 15 13 10 7 7 9 10 13 18 16 17 17 17 15 16 17 18 18 16 11 10 9 4 2 5 6 8 8 8 10 12 15

GFSSE_250_spd_345.txt.gz
Wind_Speed
16 18 17 16 12 9 12 12 14 17 17 16 20 30 24 19 18 16 17 17 18 21 21 23 20 20 22 27 32 37 38 38 37 33 31 30 27 25 26 26 24 23 22
19 21 17 18 16 15 13 10 10 14 15 15 29 32 27 17 16 15 17 16 17 22 23 23 22 21 22 23 27 31 37 36 36 34 34 28 28 25 29 31 33 31 29
19 24 21 22 21 18 16 16 16 14 9 12 23 29 32 19 16 15 16 16 18 18 20 22 20 21 23 23 26 28 31 34 35 35 33 31 28 29 30 33 36 37 34
26 21 22 21 19 16 9 4 3 8 2 8 13 24 26 24 15 14 16 17 19 20 22 22 23 18 28 28 22 25 25 28 32 32 32 30 27 28 28 30 31 31 33
30 29 25 23 22 19 13 16 3 9 2 9 10 17 22 20 16 15 14 14 15 20 21 21 26 26 17 24 26 22 23 23 26 29 31 31 29 28 28 28 30 31 30
24 28 27 33 27 21 11 10 8 9 1 4 9 17 20 18 14 17 14 14 21 21 21 19 20 21 20 23 25 20 21 22 25 25 27 29 30 32 29 33 32 34 33
24 21 22 26 27 28 26 11 13 8 3 2 13 17 17 17 12 15 13 20 21 20 24 15 15 20 21 17 21 21 26 19 20 19 25 26 26 29 31 33 31 30 29
23 23 22 24 19 23 18 14 17 8 5 5 9 12 14 15 11 11 12 17 15 14 19 21 15 19 20 23 22 26 23 26 17 18 20 22 24 22 25 29 31 31 34
24 25 28 25 19 11 18 17 19 14 5 1 8 13 11 12 11 8 12 21 25 21 19 20 22 21 21 26 20 21 23 22 18 13 15 20 22 19 20 21 25 26 27
36 31 30 27 19 15 23 19 19 13 10 4 4 10 9 11 10 9 9 17 18 19 18 20 21 22 22 25 21 20 21 17 14 9 9 16 19 17 17 17 15 16 20
43 37 35 27 18 18 23 20 18 15 9 1 4 6 9 11 11 7 11 8 16 18 22 19 19 20 23 22 20 16 21 20 15 8 8 12 16 16 14 14 13 12 16
43 43 32 23 23 23 21 20 15 10 7 0 2 8 6 7 11 10 12 11 10 7 9 18 19 19 17 18 26 17 21 22 19 10 10 11 12 14 16 14 12 10 13
44 34 30 29 35 25 21 18 12 10 5 4 6 5 5 7 6 10 6 3 6 6 7 8 10 14 12 18 25 26 19 22 20 11 11 12 12 13 15 15 13 13 13
47 36 36 42 27 25 20 18 14 7 7 9 4 4 5 7 6 3 6 4 6 7 7 6 7 13 13 19 24 28 25 16 19 18 13 12 11 13 14 14 15 15 11
48 41 28 38 33 27 18 18 14 8 7 11 2 5 4 6 6 4 6 3 4 4 7 9 8 10 17 22 24 25 26 16 15 21 15 12 11 12 15 15 11 10 9
56 41 34 34 35 32 21 13 10 12 11 9 12 5 4 4 3 6 11 7 2 9 8 6 7 12 16 19 21 24 23 13 10 13 15 15 14 11 9 5 7 6 6
46 40 40 37 34 29 26 18 12 13 15 15 8 9 4 4 1 4 8 7 2 2 6 8 9 13 15 17 20 23 21 13 7 7 10 12 11 9 7 4 3 4 2
40 42 36 32 31 34 32 23 16 15 12 11 8 9 8 6 9 12 7 6 1 4 6 10 12 13 14 18 19 21 21 15 4 2 5 8 9 8 5 5 2 4 4
31 36 41 31 29 25 25 22 21 16 17 11 10 1 5 6 11 14 10 8 10 7 12 16 14 15 16 21 19 21 20 12 3 8 5 6 6 7 7 1 3 4 6
24 28 37 31 23 26 25 23 19 18 11 11 8 6 7 7 13 15 16 11 9 12 15 16 16 17 18 19 22 21 23 16 2 11 9 6 7 7 7 7 5 6 6
16 21 26 25 24 22 21 23 25 18 16 15 11 10 13 10 15 18 19 19 13 15 15 17 18 19 18 20 22 19 21 12 2 12 9 6 5 8 7 6 8 8 8
19 21 18 19 16 20 19 21 22 20 16 17 12 11 9 9 12 17 21 18 16 14 15 16 18 19 18 20 20 19 17 7 4 9 8 6 6 5 4 7 7 7 7
21 17 17 17 17 18 21 26 22 21 20 16 15 10 10 11 11 12 12 14 14 13 12 16 17 18 19 18 16 17 12 10 8 11 7 3 3 3 1 6 5 4 3
20 23 26 24 25 26 26 27 26 26 24 20 16 15 11 13 10 11 11 12 13 14 15 18 17 16 14 14 14 15 12 14 9 10 7 1 4 5 6 6 8 8 4
9 13 19 25 29 28 30 29 30 28 24 24 19 17 11 13 10 12 15 15 15 15 18 19 18 14 11 12 12 9 10 13 12 8 5 2 1 5 7 7 8 10 9
8 9 11 13 18 24 26 30 33 29 27 22 20 16 13 10 8 10 14 16 16 17 19 19 15 15 13 12 8 2 9 7 9 8 7 4 1 1 3 3 4 8 14